Regional Weather Roundup
Issued by NWS

Home | Current Version | Previous Version | Text Only | Print | Product List | Glossary On
Versions: 1 2 3 4 5 6 7 8 9 10 11 12 13 14 15 16 17 18 19 20 21 22 23 24 25 26 27
000
ASUS42 KKEY 251510
RWRKEY

FLORIDA REGIONAL WEATHER ROUNDUP FOR THE FLORIDA KEYS
NATIONAL WEATHER SERVICE KEY WEST FLORIDA
1100 AM EDT WED APR 25 2018

...SOUTH FLORIDA AND THE KEYS...

CITY           SKY/WX    TMP DP  RH WIND       PRES   REMARKS
FORT MYERS     FAIR      80  60  50 W10       30.00F
SW REGIONAL AP PTSUNNY   76  61  59 W7        30.01S
NAPLES         FAIR      77  63  61 W12       30.01S
MIAMI          FAIR      76  61  59 VRB7      30.01S
WEST KENDALL   FAIR      78  60  53 NW7       30.01S
HOMESTEAD      FAIR      77  62  58 NW3       30.01R
MARATHON       FAIR      80  66  62 N8        30.01S
KEY WEST INTL  FAIR      79  68  69 N8        30.02S

...INTERNATIONAL WEATHER...

CITY           SKY/WX    TMP DP  RH WIND       PRES   REMARKS
NASSAU BAHAMAS MOSUNNY   82  72  69 S3        30.00F
CANCUN MEXICO  MOSUNNY   84  73  70 S6        30.01S HX  91
COZUMEL MEXICO MOSUNNY   82  77  83 N7        29.99S HX  91

ADJACENT COASTAL WATERS...

STATION/POSITION TIME  SKY/WX   TEMP    WIND        PRES    WAVE
                                AIR SEA DIR/SP/G            HT/PER
                 (UTC)          (F)     (DEG/KT/KT) (MB)    (FT/S)
PULASKI SHOAL LI 1500            75      20/  8/  9 1016.6F
SAND KEY         1450            75                 1016.7R
SOMBRERO KEY     1450            75     350/  9/ 11 1015.7R
LONG KEY         1500            74 83   20/  8/  9 1016.3F
MOLASSES REEF    1400            73 78   20/ 10/ 11 1016.6R
FOWEY ROCKS      1500            73 79  320/  2/  3 1017.2R
Buoy 42078       1430               79                N/A     1/ 2
Buoy 42097       1430               77                N/A     2/ 6

$$




USA.gov is the U.S. government's official web portal to all federal, state and local government web resources and services.